This is the latest recevied weather packets stored in our database for station/object WK1F-2. If no packets are shown the sender has not sent any weather packets the latest 10 day(s).
| Time | Temp. | Humidity | Pressure | Rain* | Wind** | Luminosity | Snow |
|---|---|---|---|---|---|---|---|
| 1778110801 | 25° C | 68% | 1013.9 hPa | 0 mm | - | - | - |
| 1778110501 | 25.56° C | 68% | 1013.9 hPa | 0 mm | - | - | - |
| 1778110201 | 25.56° C | 68% | 1013.9 hPa | 0 mm | - | - | - |
| 1778109901 | 25.56° C | 68% | 1013.8 hPa | 0 mm | - | - | - |
| 1778109601 | 25.56° C | 68% | 1013.7 hPa | 0 mm | - | - | - |
| 1778109301 | 25.56° C | 68% | 1013.7 hPa | 0 mm | - | - | - |
| 1778109001 | 25.56° C | 67% | 1013.6 hPa | 0 mm | - | - | - |
| 1778108701 | 25.56° C | 66% | 1013.6 hPa | 0 mm | - | - | - |
| 1778108401 | 25.56° C | 65% | 1013.6 hPa | 0 mm | - | - | - |
| 1778108101 | 26.11° C | 63% | 1013.6 hPa | 0 mm | - | - | - |
| 1778107801 | 26.11° C | 62% | 1013.7 hPa | 0 mm | - | - | - |
| 1778107501 | 26.11° C | 61% | 1013.7 hPa | 0 mm | - | - | - |
| 1778107201 | 26.11° C | 61% | 1013.8 hPa | 0 mm | - | - | - |
| 1778106901 | 26.11° C | 61% | 1013.8 hPa | 0 mm | - | - | - |
| 1778106601 | 26.67° C | 61% | 1013.9 hPa | 0 mm | - | - | - |
| 1778106301 | 26.67° C | 60% | 1013.9 hPa | 0 mm | - | - | - |
| 1778106001 | 26.67° C | 61% | 1013.8 hPa | 0 mm | - | - | - |
| 1778105700 | 26.67° C | 60% | 1013.8 hPa | 0 mm | - | - | - |
| 1778105400 | 26.67° C | 61% | 1013.9 hPa | 0 mm | - | - | - |
| 1778105101 | 26.67° C | 62% | 1013.9 hPa | 0 mm | - | - | - |
| 1778104801 | 26.67° C | 62% | 1013.7 hPa | 0 mm | - | - | - |
| 1778104501 | 27.22° C | 62% | 1013.6 hPa | 0 mm | - | - | - |
| 1778104200 | 26.67° C | 62% | 1013.7 hPa | 0 mm | - | - | - |
| 1778103900 | 27.22° C | 62% | 1013.7 hPa | 0 mm | - | - | - |
| 1778103600 | 27.22° C | 63% | 1013.5 hPa | 0 mm | - | - | - |
* Rain latest hour (hover to see other rain measurements)
** Current wind speed in m/s (hover to see current wind gust speed)